This is the latest recevied weather packets stored in our database for station/object N9NDF. If no packets are shown the sender has not sent any weather packets the latest 10 day(s).
| Time | Temp. | Humidity | Pressure | Rain* | Wind** | Luminosity | Snow |
|---|---|---|---|---|---|---|---|
| 1777300682 | 15° C | 94% | 982.8 hPa | 7.11 mm | - | 17 W/m² | - |
| 1777300612 | 15° C | 94% | 982.9 hPa | 7.11 mm | - | 16 W/m² | - |
| 1777300542 | 15° C | 94% | 983.2 hPa | 7.11 mm | - | 15 W/m² | - |
| 1777300484 | 15° C | 94% | 983.4 hPa | 7.11 mm | - | 14 W/m² | - |
| 1777300423 | 15° C | 94% | 983.5 hPa | 7.11 mm | - | 13 W/m² | - |
| 1777300363 | 15° C | 94% | 983.6 hPa | 7.11 mm | - | 11 W/m² | - |
| 1777300303 | 15° C | 94% | 983.7 hPa | 7.11 mm | - | 10 W/m² | - |
| 1777300237 | 15° C | 94% | 984 hPa | 7.11 mm | - | 11 W/m² | - |
| 1777300177 | 15° C | 94% | 984.2 hPa | 7.37 mm | - | 13 W/m² | - |
| 1777300116 | 15° C | 94% | 984.4 hPa | 7.37 mm | - | 14 W/m² | - |
| 1777300055 | 15° C | 94% | 984.6 hPa | 7.62 mm | - | 14 W/m² | - |
| 1777299996 | 15° C | 94% | 984.7 hPa | 7.62 mm | - | 18 W/m² | - |
| 1777299935 | 15° C | 94% | 984.6 hPa | 7.62 mm | - | 22 W/m² | - |
| 1777299875 | 15° C | 94% | 984.7 hPa | 7.62 mm | - | 24 W/m² | - |
| 1777299816 | 15° C | 94% | 984.7 hPa | 7.87 mm | - | 23 W/m² | - |
| 1777299755 | 15° C | 94% | 984.7 hPa | 7.87 mm | - | 21 W/m² | - |
| 1777299695 | 15° C | 94% | 984.7 hPa | 8.13 mm | - | 19 W/m² | - |
| 1777299636 | 15° C | 94% | 984.5 hPa | 8.13 mm | - | 20 W/m² | - |
| 1777299575 | 15° C | 94% | 984.3 hPa | 8.38 mm | - | 22 W/m² | - |
| 1777299516 | 15° C | 94% | 984.2 hPa | 8.38 mm | - | 25 W/m² | - |
| 1777299456 | 15° C | 94% | 984.1 hPa | 8.64 mm | - | 26 W/m² | - |
| 1777299396 | 15° C | 94% | 984.1 hPa | 8.64 mm | - | 25 W/m² | - |
| 1777299335 | 15° C | 94% | 984.4 hPa | 8.89 mm | - | 23 W/m² | - |
| 1777299288 | 15° C | 94% | 984.5 hPa | 8.89 mm | - | 22 W/m² | - |
| 1777299204 | 15° C | 94% | 984.5 hPa | 8.64 mm | - | 23 W/m² | - |
* Rain latest hour (hover to see other rain measurements)
** Current wind speed in m/s (hover to see current wind gust speed)